Location: Bonny Doon Airfield
(37.0704°N, 122.1252°W)
Time: 02:53:58
(UTC-07:00)

Envisat - Pass Details

Date: 10 October 2017
Orbit: 764 x 766 km, 98.2° (Epoch: 22 October)

Event Time Altitude Azimuth Distance (km) Brightness Sun altitude
Exits shadow 21:28:07 33° 317° (NW) 1,270 4.5 -34.3°
Drops below altitude 10° 21:31:06 10° 337° (NNW) 2,307 5.9 -34.9°
Sets 21:33:29 0° 342° (NNW) 3,236 6.7 -35.3°
